Overview Statistics Trail Chart Weather Telemetry Raw packets
 

This is the latest recevied weather packets stored in our database for station/object N3TJJ-2. If no packets are shown the sender has not sent any weather packets the latest 10 day(s).

<< 83 84 85 86 87 88 89 >>
Time Temp. Humidity Pressure Rain* Wind** Luminosity Snow
1787871352 20.56° C 55% 1014.9 hPa 0.25 mm - - -
1787870924 20.56° C 58% 1015 hPa 0.25 mm - - -
1787870571 20.56° C 60% 1015.1 hPa 0.25 mm - - -
1787870209 20.56° C 59% 1015.1 hPa 0.25 mm - - -
1787869842 20.56° C 58% 1015 hPa 0.25 mm - - -
1787869484 20.56° C 61% 1015 hPa 0.25 mm - - -
1787869127 20.56° C 62% 1015 hPa 0.25 mm - - -
1787868852 21.11° C 65% 1015 hPa 0.25 mm - - -
1787868783 21.11° C 65% 1015 hPa 0.25 mm - - -
1787868401 21.67° C 70% 1015.2 hPa 0.25 mm - - -
1787868049 22.22° C 71% 1015.1 hPa 0 mm - - -
1787867694 22.22° C 73% 1015.3 hPa 0 mm - - -
1787867325 22.22° C 73% 1015.3 hPa 0 mm - - -
1787866980 22.22° C 74% 1014.9 hPa 0 mm - - -
1787866706 22.78° C 75% 1014.9 hPa 0 mm - - -
1787866413 23.33° C 76% 1014.8 hPa 0 mm - - -
1787866413 24.44° C 77% 1015 hPa 0 mm - - -
1787866242 23.33° C 76% 1014.8 hPa 0 mm - - -
1787865882 24.44° C 77% 1015 hPa 0 mm - - -
1787865529 25° C 77% 1014.9 hPa 0 mm - - -
1787865172 25.56° C 76% 1014.8 hPa 0 mm - - -
1787864801 25.56° C 77% 1014.4 hPa 0 mm - - -
1787864454 26.11° C 76% 1014.3 hPa 0 mm - - -
1787863751 28.33° C 76% 1014.3 hPa 0 mm - - -
1787863377 28.33° C 76% 1014.4 hPa 0 mm - - -

* Rain latest hour (hover to see other rain measurements)
** Current wind speed in m/s (hover to see current wind gust speed)